SLI1419 MMTM-MMMX

Flight info

Callsign SLI1419
Flight time 0h 45m
Altitude 38000
Route NOTOR1A NOTOR UT102 PAZ UT154 ENAGA ENAGA3A
Aircraft E190/M-SDE3GILORVW/S

Departure

Time 2026-05-09 05:44
Airport General Francisco Javier Mina International Airport (MMTM)

Arrival

Time 2026-05-09 06:30
Airport Mexico City Benito Juárez International Airport (MMMX)
Time Latitude Longitude Altitude Speed Heading
2026-05-09 04:34 22.29013 -97.86946 102 ft 0 kts 235°
2026-05-09 05:32 22.29015 -97.86944 99 ft 3 kts 235°
2026-05-09 05:32 22.29028 -97.86919 99 ft 4 kts 252°
2026-05-09 05:32 22.29032 -97.86892 99 ft 4 kts 291°
2026-05-09 05:32 22.29025 -97.86879 99 ft 0 kts 326°
2026-05-09 05:37 22.29031 -97.86883 99 ft 2 kts 326°
2026-05-09 05:37 22.29052 -97.86898 98 ft 5 kts 327°
2026-05-09 05:37 22.29086 -97.86921 98 ft 7 kts 326°
2026-05-09 05:37 22.29125 -97.86921 99 ft 7 kts 45°
2026-05-09 05:38 22.29168 -97.86885 99 ft 9 kts 22°
2026-05-09 05:38 22.29236 -97.86883 99 ft 11 kts 354°
2026-05-09 05:38 22.29318 -97.86890 98 ft 10 kts 355°
2026-05-09 05:38 22.29343 -97.86893 99 ft 0 kts 356°
2026-05-09 05:40 22.29351 -97.86893 99 ft 2 kts 356°
2026-05-09 05:40 22.29377 -97.86896 98 ft 5 kts 355°
2026-05-09 05:40 22.29425 -97.86900 98 ft 8 kts 355°
2026-05-09 05:40 22.29494 -97.86907 99 ft 11 kts 354°
2026-05-09 05:41 22.29574 -97.86939 100 ft 13 kts 329°
2026-05-09 05:41 22.29655 -97.86994 98 ft 15 kts 322°
2026-05-09 05:41 22.29744 -97.87064 97 ft 17 kts 324°
2026-05-09 05:41 22.29841 -97.87139 99 ft 18 kts 324°
2026-05-09 05:42 22.29945 -97.87219 99 ft 19 kts 325°
2026-05-09 05:42 22.30040 -97.87291 99 ft 14 kts 324°
2026-05-09 05:42 22.30106 -97.87344 98 ft 9 kts 315°
2026-05-09 05:42 22.30137 -97.87413 98 ft 12 kts 290°
2026-05-09 05:43 22.30169 -97.87436 99 ft 5 kts 27°
2026-05-09 05:43 22.30184 -97.87401 99 ft 4 kts 104°
2026-05-09 05:43 22.30160 -97.87381 99 ft 5 kts 148°
2026-05-09 05:43 22.30088 -97.87327 98 ft 39 kts 145°
2026-05-09 05:44 22.29623 -97.86977 98 ft 121 kts 146°
2026-05-09 05:44 22.28760 -97.86320 273 ft 176 kts 144°
2026-05-09 05:44 22.27692 -97.85509 1125 ft 198 kts 143°
2026-05-09 05:44 22.26555 -97.84558 2194 ft 209 kts 140°
2026-05-09 05:45 22.25495 -97.83603 2568 ft 203 kts 141°
2026-05-09 05:45 22.24315 -97.82587 3191 ft 220 kts 142°
2026-05-09 05:45 22.23106 -97.81571 4211 ft 225 kts 143°
2026-05-09 05:45 22.21841 -97.80497 5023 ft 234 kts 142°
2026-05-09 05:46 22.20568 -97.79410 5921 ft 238 kts 143°
2026-05-09 05:46 22.19243 -97.78275 6810 ft 243 kts 143°
2026-05-09 05:46 22.17926 -97.77154 7681 ft 246 kts 143°
2026-05-09 05:46 22.16558 -97.75992 8527 ft 251 kts 143°
2026-05-09 05:47 22.15149 -97.74861 9341 ft 254 kts 150°
2026-05-09 05:47 22.13448 -97.74342 10110 ft 258 kts 179°
2026-05-09 05:47 22.11661 -97.74666 10882 ft 267 kts 201°
2026-05-09 05:47 22.10022 -97.75711 11499 ft 287 kts 220°
2026-05-09 05:48 22.08550 -97.77240 12021 ft 307 kts 227°
2026-05-09 05:48 22.07027 -97.78945 12742 ft 321 kts 219°
2026-05-09 05:48 22.04989 -97.79991 13646 ft 329 kts 191°
2026-05-09 05:48 22.02702 -97.79902 14708 ft 332 kts 169°
2026-05-09 05:49 22.00448 -97.79369 15778 ft 332 kts 169°
2026-05-09 05:49 21.98224 -97.78842 16856 ft 330 kts 169°
2026-05-09 05:49 21.95969 -97.78306 17799 ft 332 kts 169°
2026-05-09 05:49 21.93702 -97.77760 18686 ft 333 kts 169°
2026-05-09 05:50 21.91450 -97.77206 19420 ft 337 kts 169°
2026-05-09 05:50 21.89135 -97.76628 20088 ft 343 kts 169°
2026-05-09 05:50 21.86785 -97.76036 20725 ft 348 kts 169°
2026-05-09 05:50 21.84405 -97.75450 21350 ft 353 kts 169°
2026-05-09 05:51 21.82022 -97.74871 21955 ft 357 kts 169°
2026-05-09 05:51 21.79578 -97.74276 22584 ft 360 kts 169°
2026-05-09 05:51 21.77115 -97.73675 23171 ft 364 kts 169°
2026-05-09 05:51 21.74618 -97.73069 23731 ft 368 kts 169°
2026-05-09 05:52 21.72135 -97.72466 24292 ft 371 kts 169°
2026-05-09 05:52 21.69598 -97.71849 24838 ft 374 kts 170°
2026-05-09 05:52 21.67045 -97.71229 25339 ft 377 kts 170°
2026-05-09 05:52 21.64471 -97.70604 25842 ft 379 kts 170°
2026-05-09 05:53 21.61879 -97.69975 26270 ft 383 kts 170°
2026-05-09 05:53 21.59297 -97.69349 26722 ft 385 kts 170°
2026-05-09 05:53 21.56661 -97.68710 27159 ft 388 kts 171°
2026-05-09 05:53 21.54004 -97.68065 27600 ft 391 kts 171°
2026-05-09 05:54 21.51365 -97.67426 27993 ft 394 kts 171°
2026-05-09 05:54 21.48663 -97.66766 28390 ft 397 kts 171°
2026-05-09 05:54 21.45993 -97.66120 28796 ft 399 kts 171°
2026-05-09 05:54 21.43269 -97.65462 29161 ft 401 kts 171°
2026-05-09 05:55 21.40534 -97.64800 29510 ft 404 kts 171°
2026-05-09 05:55 21.37781 -97.64134 29889 ft 404 kts 171°
2026-05-09 05:55 21.35031 -97.63470 29990 ft 413 kts 171°
2026-05-09 05:55 21.32197 -97.62787 30016 ft 422 kts 171°
2026-05-09 05:56 21.29284 -97.62085 29946 ft 434 kts 171°
2026-05-09 05:56 21.26288 -97.61364 29878 ft 444 kts 171°
2026-05-09 05:56 21.20160 -97.59881 29877 ft 459 kts 171°
2026-05-09 05:57 21.13909 -97.58371 29890 ft 465 kts 171°
2026-05-09 05:57 21.07599 -97.56845 29892 ft 466 kts 170°
2026-05-09 05:58 21.01245 -97.55310 29884 ft 467 kts 171°
2026-05-09 05:58 20.94935 -97.53798 29895 ft 467 kts 171°
2026-05-09 05:59 20.88568 -97.52269 29908 ft 467 kts 170°
2026-05-09 05:59 20.82214 -97.50744 29908 ft 467 kts 170°
2026-05-09 06:00 20.75895 -97.49228 29908 ft 467 kts 170°
2026-05-09 06:00 20.69568 -97.47710 29918 ft 467 kts 170°
2026-05-09 06:01 20.63173 -97.46410 29925 ft 463 kts 181°
2026-05-09 06:01 20.60036 -97.46748 29935 ft 457 kts 196°
2026-05-09 06:01 20.57093 -97.48013 29946 ft 454 kts 212°
2026-05-09 06:02 20.54605 -97.50087 29961 ft 452 kts 227°
2026-05-09 06:02 20.52560 -97.52647 29941 ft 453 kts 231°
2026-05-09 06:02 20.48602 -97.57853 29918 ft 453 kts 231°
2026-05-09 06:03 20.44655 -97.63054 29928 ft 453 kts 231°
2026-05-09 06:03 20.40688 -97.68288 29932 ft 453 kts 231°
2026-05-09 06:04 20.36723 -97.73518 29937 ft 453 kts 231°
2026-05-09 06:04 20.32765 -97.78735 29943 ft 453 kts 231°
2026-05-09 06:05 20.28797 -97.83959 29939 ft 453 kts 231°
2026-05-09 06:05 20.24851 -97.89148 29956 ft 453 kts 231°
2026-05-09 06:06 20.20869 -97.94387 29976 ft 460 kts 230°
2026-05-09 06:06 20.16805 -97.99723 29986 ft 466 kts 230°
2026-05-09 06:07 20.12738 -98.05059 29981 ft 466 kts 230°
2026-05-09 06:07 20.08558 -98.10346 29979 ft 466 kts 229°
2026-05-09 06:08 20.04340 -98.15595 30013 ft 466 kts 229°
2026-05-09 06:08 20.02461 -98.18406 30024 ft 468 kts 242°
2026-05-09 06:08 20.01416 -98.21656 30029 ft 470 kts 256°
2026-05-09 06:09 20.00036 -98.28480 29608 ft 471 kts 257°
2026-05-09 06:09 19.99362 -98.31861 29127 ft 459 kts 257°
2026-05-09 06:09 19.98717 -98.35085 28682 ft 443 kts 256°
2026-05-09 06:10 19.98079 -98.38255 28213 ft 430 kts 256°
2026-05-09 06:10 19.97455 -98.41342 27764 ft 421 kts 256°
2026-05-09 06:10 19.96841 -98.44378 27321 ft 418 kts 256°
2026-05-09 06:10 19.96233 -98.47382 26864 ft 419 kts 256°
2026-05-09 06:11 19.95617 -98.50417 26433 ft 418 kts 256°
2026-05-09 06:11 19.95003 -98.53442 25966 ft 417 kts 256°
2026-05-09 06:11 19.94400 -98.56416 25529 ft 414 kts 256°
2026-05-09 06:11 19.93792 -98.59409 25073 ft 412 kts 256°
2026-05-09 06:12 19.93191 -98.62374 24604 ft 400 kts 256°
2026-05-09 06:12 19.92629 -98.65141 24147 ft 376 kts 256°
2026-05-09 06:12 19.92087 -98.67807 23677 ft 360 kts 256°
2026-05-09 06:12 19.91557 -98.70399 23235 ft 356 kts 256°
2026-05-09 06:13 19.91035 -98.72945 22781 ft 355 kts 255°
2026-05-09 06:13 19.90641 -98.75548 22346 ft 354 kts 261°
2026-05-09 06:13 19.90351 -98.78145 21886 ft 353 kts 261°
2026-05-09 06:13 19.90075 -98.80704 21431 ft 349 kts 261°
2026-05-09 06:14 19.89796 -98.83266 20995 ft 346 kts 261°
2026-05-09 06:14 19.89515 -98.85805 20530 ft 344 kts 261°
2026-05-09 06:14 19.89240 -98.88287 20095 ft 341 kts 261°
2026-05-09 06:14 19.89044 -98.90815 19653 ft 345 kts 268°
2026-05-09 06:15 19.89147 -98.93373 19195 ft 345 kts 273°
2026-05-09 06:15 19.89359 -98.95864 18753 ft 339 kts 273°
2026-05-09 06:15 19.89560 -98.98342 18300 ft 331 kts 273°
2026-05-09 06:15 19.89738 -99.00721 17923 ft 310 kts 272°
2026-05-09 06:16 19.89893 -99.02917 17968 ft 291 kts 272°
2026-05-09 06:16 19.90043 -99.05051 18016 ft 296 kts 272°
2026-05-09 06:16 19.90193 -99.07268 17999 ft 304 kts 272°
2026-05-09 06:16 19.90307 -99.09530 18051 ft 304 kts 271°
2026-05-09 06:17 19.90435 -99.11778 18064 ft 304 kts 269°
2026-05-09 06:17 19.90209 -99.14025 17825 ft 310 kts 253°
2026-05-09 06:17 19.89320 -99.16070 17315 ft 309 kts 233°
2026-05-09 06:17 19.87845 -99.17709 16850 ft 305 kts 216°
2026-05-09 06:18 19.85963 -99.18756 16399 ft 303 kts 198°
2026-05-09 06:18 19.83930 -99.19233 15947 ft 301 kts 190°
2026-05-09 06:18 19.81872 -99.19597 15491 ft 294 kts 190°
2026-05-09 06:18 19.79893 -99.19955 15027 ft 281 kts 191°
2026-05-09 06:19 19.78015 -99.20324 14559 ft 272 kts 192°
2026-05-09 06:19 19.76177 -99.20721 14111 ft 267 kts 193°
2026-05-09 06:19 19.74402 -99.21148 14045 ft 257 kts 194°
2026-05-09 06:19 19.72610 -99.21629 14111 ft 271 kts 195°
2026-05-09 06:20 19.70799 -99.22113 14116 ft 264 kts 194°
2026-05-09 06:20 19.69031 -99.22578 13979 ft 258 kts 194°
2026-05-09 06:20 19.67338 -99.23023 13963 ft 252 kts 194°
2026-05-09 06:20 19.65590 -99.23502 13378 ft 264 kts 196°
2026-05-09 06:21 19.64408 -99.23855 13034 ft 264 kts 197°
2026-05-09 06:21 19.62675 -99.24421 12541 ft 256 kts 206°
2026-05-09 06:21 19.61179 -99.26073 12446 ft 219 kts 247°
2026-05-09 06:21 19.60774 -99.27052 12625 ft 214 kts 245°
2026-05-09 06:22 19.59934 -99.28354 12576 ft 220 kts 219°
2026-05-09 06:22 19.58555 -99.29016 12576 ft 217 kts 186°
2026-05-09 06:22 19.57103 -99.28842 12545 ft 207 kts 158°
2026-05-09 06:22 19.55899 -99.28061 12497 ft 201 kts 136°
2026-05-09 06:23 19.55069 -99.26894 12496 ft 198 kts 120°
2026-05-09 06:23 19.54372 -99.25623 12600 ft 200 kts 122°
2026-05-09 06:23 19.53630 -99.24397 12663 ft 200 kts 125°
2026-05-09 06:23 19.52604 -99.23367 12293 ft 212 kts 157°
2026-05-09 06:24 19.51147 -99.23085 11791 ft 216 kts 181°
2026-05-09 06:24 19.49630 -99.23160 11325 ft 219 kts 185°
2026-05-09 06:24 19.48131 -99.23259 10867 ft 216 kts 183°
2026-05-09 06:24 19.46632 -99.23310 10432 ft 215 kts 181°
2026-05-09 06:25 19.45122 -99.23334 10033 ft 214 kts 181°
2026-05-09 06:25 19.43725 -99.23342 10216 ft 186 kts 180°
2026-05-09 06:25 19.42469 -99.23332 10708 ft 183 kts 178°
2026-05-09 06:25 19.41197 -99.23189 11097 ft 187 kts 173°
2026-05-09 06:26 19.39885 -99.22919 11456 ft 191 kts 163°
2026-05-09 06:26 19.38622 -99.22263 11137 ft 212 kts 143°
2026-05-09 06:26 19.37638 -99.21121 10562 ft 213 kts 119°
2026-05-09 06:26 19.37225 -99.19644 10098 ft 205 kts 94°
2026-05-09 06:27 19.37395 -99.18162 9551 ft 201 kts 70°
2026-05-09 06:27 19.38062 -99.16939 9447 ft 174 kts 55°
2026-05-09 06:27 19.38614 -99.16003 9743 ft 132 kts 62°
2026-05-09 06:27 19.39064 -99.15119 9142 ft 149 kts 60°
2026-05-09 06:28 19.39600 -99.14165 8825 ft 143 kts 59°
2026-05-09 06:28 19.40099 -99.13284 8537 ft 140 kts 61°
2026-05-09 06:28 19.40604 -99.12371 8220 ft 146 kts 60°
2026-05-09 06:28 19.41142 -99.11417 7945 ft 156 kts 59°
2026-05-09 06:29 19.41695 -99.10444 7908 ft 152 kts 58°
2026-05-09 06:29 19.42229 -99.09494 7661 ft 149 kts 61°
2026-05-09 06:29 19.42739 -99.08529 7443 ft 150 kts 60°
2026-05-09 06:29 19.43249 -99.07607 7306 ft 133 kts 60°
2026-05-09 06:30 19.43632 -99.06921 7300 ft 81 kts 59°
2026-05-09 06:30 19.43824 -99.06576 7301 ft 37 kts 63°
2026-05-09 06:30 19.43948 -99.06340 7300 ft 38 kts 69°
2026-05-09 06:30 19.43970 -99.06154 7301 ft 12 kts 89°
2026-05-09 06:31 19.43965 -99.06072 7301 ft 11 kts 115°
2026-05-09 06:31 19.43911 -99.06083 7301 ft 9 kts 240°
2026-05-09 06:31 19.43878 -99.06142 7301 ft 10 kts 239°
2026-05-09 06:31 19.43843 -99.06206 7301 ft 10 kts 240°
2026-05-09 06:32 19.43804 -99.06275 7301 ft 12 kts 238°
2026-05-09 06:32 19.43761 -99.06352 7301 ft 13 kts 239°
2026-05-09 06:32 19.43707 -99.06451 7301 ft 16 kts 240°
2026-05-09 06:33 19.43592 -99.06655 7301 ft 16 kts 240°
2026-05-09 06:33 19.43504 -99.06728 7302 ft 16 kts 206°
2026-05-09 06:33 19.43403 -99.06783 7302 ft 15 kts 208°
2026-05-09 06:34 19.43390 -99.06809 7301 ft 3 kts 290°
2026-05-09 06:34 19.43404 -99.06843 7301 ft 6 kts 272°
2026-05-09 06:34 19.43382 -99.06897 7301 ft 10 kts 236°
2026-05-09 06:34 19.43341 -99.06971 7301 ft 12 kts 240°
2026-05-09 06:35 19.43298 -99.07050 7301 ft 12 kts 238°
2026-05-09 06:35 19.43266 -99.07134 7301 ft 13 kts 259°
2026-05-09 06:35 19.43253 -99.07238 7301 ft 15 kts 257°
2026-05-09 06:35 19.43204 -99.07339 7302 ft 16 kts 238°
2026-05-09 06:36 19.43145 -99.07441 7301 ft 16 kts 239°
2026-05-09 06:36 19.43089 -99.07545 7302 ft 17 kts 239°
2026-05-09 06:36 19.43025 -99.07655 7301 ft 18 kts 237°
2026-05-09 06:36 19.42962 -99.07752 7301 ft 15 kts 226°
2026-05-09 06:37 19.42885 -99.07825 7302 ft 15 kts 211°
2026-05-09 06:37 19.42810 -99.07867 7301 ft 0 kts 209°
2026-05-09 06:37 19.42800 -99.07873 7302 ft 4 kts 209°
2026-05-09 06:38 19.42755 -99.07881 7302 ft 9 kts 170°
2026-05-09 06:38 19.42697 -99.07847 7301 ft 10 kts 150°
2026-05-09 06:38 19.42633 -99.07817 7301 ft 10 kts 183°
2026-05-09 06:38 19.42590 -99.07867 7301 ft 10 kts 240°
2026-05-09 06:39 19.42554 -99.07932 7301 ft 10 kts 240°
2026-05-09 06:39 19.42516 -99.08001 7301 ft 11 kts 239°
2026-05-09 06:39 19.42466 -99.08055 7301 ft 10 kts 188°
2026-05-09 06:39 19.42402 -99.08024 7301 ft 11 kts 150°
2026-05-09 06:40 19.42347 -99.07972 7302 ft 11 kts 128°
2026-05-09 06:40 19.42313 -99.07941 7301 ft 5 kts 168°
2026-05-09 06:40 19.42280 -99.07952 7301 ft 5 kts 210°
2026-05-09 06:40 19.42263 -99.07964 7301 ft 0 kts 212°
2026-05-09 06:41 19.42262 -99.07964 7301 ft 0 kts 212°